Time,TemperatureF,DewpointF,PressureIn,WindDirection,WindDirectionDegrees,WindSpeedMPH,WindSpeedGustMPH,Humidity,HourlyPrecipIn,Conditions,Clouds,dailyrainin,SoftwareType,DateUTC
2013-03-08 00:15:00,40.9,27.5,28.17,WSW,244,0.0,20.8,97,0.00,,,-99.99,HOBO +U30 +Weather +,2013-03-08 08:15:00,
2013-03-08 00:30:00,40.8,27.9,28.17,WSW,244,0.0,21.3,97,0.00,,,-99.99,HOBO +U30 +Weather +,2013-03-08 08:30:00,
2013-03-08 00:45:00,40.7,27.4,28.17,WSW,244,0.0,21.3,97,0.00,,,-99.99,HOBO +U30 +Weather +,2013-03-08 08:45:00,
2013-03-08 01:00:00,40.6,28.4,28.17,WSW,244,0.0,20.8,97,0.00,,,-99.99,HOBO +U30 +Weather +,2013-03-08 09:00:00,
2013-03-08 01:15:00,40.5,27.3,28.17,WSW,244,0.0,21.3,97,0.00,,,-99.99,HOBO +U30 +Weather +,2013-03-08 09:15:00,
2013-03-08 01:30:00,40.4,27.3,28.17,WSW,244,0.0,21.3,97,0.00,,,-99.99,HOBO +U30 +Weather +,2013-03-08 09:30:00,
2013-03-08 01:45:00,40.2,26.5,28.17,WSW,244,0.0,22.8,97,0.00,,,-99.99,HOBO +U30 +Weather +,2013-03-08 09:45:00,
2013-03-08 02:00:00,40.2,26.6,28.17,WSW,244,0.0,21.9,97,0.00,,,-99.99,HOBO +U30 +Weather +,2013-03-08 10:00:00,
2013-03-08 02:15:00,40.0,26.6,28.17,WSW,244,0.0,22.8,97,0.00,,,-99.99,HOBO +U30 +Weather +,2013-03-08 10:15:00,
2013-03-08 02:30:00,39.9,26.2,28.17,WSW,244,0.0,21.9,96,0.00,,,-99.99,HOBO +U30 +Weather +,2013-03-08 10:30:00,
2013-03-08 02:45:00,39.8,26.5,28.16,WSW,244,0.0,22.4,97,0.00,,,-99.99,HOBO +U30 +Weather +,2013-03-08 10:45:00,
2013-03-08 03:00:00,39.7,26.3,28.16,WSW,244,0.0,21.5,97,0.00,,,-99.99,HOBO +U30 +Weather +,2013-03-08 11:00:00,
2013-03-08 03:15:00,39.7,25.5,28.16,WSW,244,0.0,19.9,96,0.00,,,-99.99,HOBO +U30 +Weather +,2013-03-08 11:15:00,
2013-03-08 03:30:00,39.5,26.2,28.15,WSW,244,0.0,23.7,97,0.00,,,-99.99,HOBO +U30 +Weather +,2013-03-08 11:30:00,
2013-03-08 03:45:00,39.4,25.4,28.15,WSW,244,0.0,23.3,96,0.00,,,-99.99,HOBO +U30 +Weather +,2013-03-08 11:45:00,
2013-03-08 04:00:00,39.4,25.6,28.16,WSW,244,0.0,23.7,96,0.00,,,-99.99,HOBO +U30 +Weather +,2013-03-08 12:00:00,
2013-03-08 04:15:00,39.3,26.3,28.16,WSW,244,0.0,22.8,97,0.00,,,-99.99,HOBO +U30 +Weather +,2013-03-08 12:15:00,
2013-03-08 04:30:00,39.1,25.8,28.16,WSW,244,0.0,24.4,96,0.00,,,-99.99,HOBO +U30 +Weather +,2013-03-08 12:30:00,
2013-03-08 04:45:00,39.1,25.7,28.16,WSW,244,0.0,22.4,96,0.00,,,-99.99,HOBO +U30 +Weather +,2013-03-08 12:45:00,
2013-03-08 05:00:00,39.0,25.9,28.16,WSW,244,0.0,20.8,97,0.00,,,-99.99,HOBO +U30 +Weather +,2013-03-08 13:00:00,
2013-03-08 05:15:00,38.9,25.9,28.16,WSW,244,0.0,15.4,96,0.00,,,-99.99,HOBO +U30 +Weather +,2013-03-08 13:15:00,
2013-03-08 05:30:00,38.8,25.4,28.16,WSW,244,0.0,12.5,96,0.00,,,-99.99,HOBO +U30 +Weather +,2013-03-08 13:30:00,
2013-03-08 05:45:00,38.7,24.7,28.16,WSW,244,0.0,0.9,96,0.00,,,-99.99,HOBO +U30 +Weather +,2013-03-08 13:45:00,
2013-03-08 06:00:00,38.6,25.1,28.16,WSW,244,0.0,0.0,97,0.00,,,-99.99,HOBO +U30 +Weather +,2013-03-08 14:00:00,
2013-03-08 06:15:00,38.6,25.5,28.17,WSW,244,0.0,0.9,96,0.00,,,-99.99,HOBO +U30 +Weather +,2013-03-08 14:15:00,
2013-03-08 06:30:00,38.4,25.8,28.17,WSW,244,0.0,21.3,97,0.00,,,-99.99,HOBO +U30 +Weather +,2013-03-08 14:30:00,
2013-03-08 06:45:00,38.4,25.7,28.17,WSW,244,0.0,17.9,96,0.00,,,-99.99,HOBO +U30 +Weather +,2013-03-08 14:45:00,
2013-03-08 07:00:00,38.3,25.5,28.17,WSW,244,0.0,16.6,96,0.00,,,-99.99,HOBO +U30 +Weather +,2013-03-08 15:00:00,
2013-03-08 07:15:00,38.2,29.2,28.17,WSW,244,0.0,17.4,98,0.00,,,-99.99,HOBO +U30 +Weather +,2013-03-08 15:15:00,
2013-03-08 08:15:00,37.9,34.4,28.17,WSW,244,0.0,0.0,95,0.00,,,-99.99,HOBO +U30 +Weather +,2013-03-08 16:15:00,
2013-03-08 08:30:00,37.8,33.3,28.18,WSW,244,0.0,2.0,93,0.00,,,-99.99,HOBO +U30 +Weather +,2013-03-08 16:30:00,
2013-03-08 08:45:00,37.7,34.7,28.18,WSW,244,0.0,1.6,89,0.00,,,-99.99,HOBO +U30 +Weather +,2013-03-08 16:45:00,
2013-03-08 09:15:00,37.7,37.2,28.18,SSW,209,0.9,24.2,87,0.00,,,-99.99,HOBO +U30 +Weather +,2013-03-08 17:15:00,
2013-03-08 09:45:00,37.7,36.0,28.19,SW,220,2.0,4.9,85,0.00,,,-99.99,HOBO +U30 +Weather +,2013-03-08 17:45:00,
2013-03-08 10:00:00,37.7,37.3,28.19,SW,230,1.3,4.3,81,0.00,,,-99.99,HOBO +U30 +Weather +,2013-03-08 18:00:00,
2013-03-08 10:15:00,37.8,37.7,28.19,WSW,248,1.3,4.3,74,0.00,,,-99.99,HOBO +U30 +Weather +,2013-03-08 18:15:00,
2013-03-08 10:30:00,37.9,37.3,28.19,West,279,2.5,25.7,73,0.00,,,-99.99,HOBO +U30 +Weather +,2013-03-08 18:30:00,
2013-03-08 10:45:00,38.1,38.1,28.19,West,271,6.3,22.4,74,0.00,,,-99.99,HOBO +U30 +Weather +,2013-03-08 18:45:00,
2013-03-08 11:00:00,38.4,37.6,28.19,West,265,4.3,7.8,75,0.00,,,-99.99,HOBO +U30 +Weather +,2013-03-08 19:00:00,
2013-03-08 11:15:00,38.7,38.8,28.18,West,270,3.8,9.2,72,0.00,,,-99.99,HOBO +U30 +Weather +,2013-03-08 19:15:00,
2013-03-08 11:30:00,38.9,39.1,28.18,West,272,3.4,25.7,70,0.00,,,-99.99,HOBO +U30 +Weather +,2013-03-08 19:30:00,
2013-03-08 11:45:00,39.3,38.7,28.18,West,279,4.3,18.3,69,0.00,,,-99.99,HOBO +U30 +Weather +,2013-03-08 19:45:00,
2013-03-08 12:00:00,39.7,39.8,28.18,West,261,4.5,27.7,68,0.00,,,-99.99,HOBO +U30 +Weather +,2013-03-08 20:00:00,
2013-03-08 12:15:00,40.1,39.8,28.18,West,263,4.5,21.9,67,0.00,,,-99.99,HOBO +U30 +Weather +,2013-03-08 20:15:00,
2013-03-08 13:00:00,41.4,39.1,28.17,West,264,4.9,26.6,60,0.00,,,-99.99,HOBO +U30 +Weather +,2013-03-08 21:00:00,
2013-03-08 13:15:00,41.8,38.3,28.17,West,268,4.9,22.8,58,0.00,,,-99.99,HOBO +U30 +Weather +,2013-03-08 21:15:00,
2013-03-08 14:15:00,43.7,38.6,28.17,WSW,258,5.4,13.0,57,0.00,,,-99.99,HOBO +U30 +Weather +,2013-03-08 22:15:00,
2013-03-08 14:30:00,44.1,37.6,28.17,West,261,5.4,13.2,57,0.00,,,-99.99,HOBO +U30 +Weather +,2013-03-08 22:30:00,
2013-03-08 14:45:00,44.6,36.4,28.17,WNW,285,4.3,18.3,49,0.00,,,-99.99,HOBO +U30 +Weather +,2013-03-08 22:45:00,
2013-03-08 15:00:00,45.0,36.6,28.17,West,260,6.3,12.1,54,0.00,,,-99.99,HOBO +U30 +Weather +,2013-03-08 23:00:00,
2013-03-08 15:15:00,45.4,37.4,28.17,West,260,5.4,13.0,54,0.00,,,-99.99,HOBO +U30 +Weather +,2013-03-08 23:15:00,
2013-03-08 16:00:00,46.4,37.4,28.17,WNW,298,5.4,21.3,56,0.00,,,-99.99,HOBO +U30 +Weather +,2013-03-09 00:00:00,
2013-03-08 16:15:00,46.7,36.0,28.18,WNW,300,4.9,9.6,54,0.00,,,-99.99,HOBO +U30 +Weather +,2013-03-09 00:15:00,
2013-03-08 17:15:00,47.5,35.3,28.20,WNW,286,3.8,23.3,60,0.00,,,-99.99,HOBO +U30 +Weather +,2013-03-09 01:15:00,
2013-03-08 18:00:00,47.8,35.5,28.22,West,267,2.0,19.9,72,0.00,,,-99.99,HOBO +U30 +Weather +,2013-03-09 02:00:00,
2013-03-08 18:15:00,47.8,35.5,28.22,North,4,2.0,6.7,79,0.00,,,-99.99,HOBO +U30 +Weather +,2013-03-09 02:15:00,
2013-03-08 18:30:00,47.8,35.1,28.22,North,0,0.9,23.7,82,0.00,,,-99.99,HOBO +U30 +Weather +,2013-03-09 02:30:00,
2013-03-08 18:45:00,47.7,34.7,28.23,North,0,0.4,1.6,86,0.00,,,-99.99,HOBO +U30 +Weather +,2013-03-09 02:45:00,
2013-03-08 19:00:00,47.7,34.3,28.24,North,0,0.0,1.6,88,0.00,,,-99.99,HOBO +U30 +Weather +,2013-03-09 03:00:00,
2013-03-08 19:15:00,47.6,33.9,28.25,North,0,0.4,2.0,89,0.00,,,-99.99,HOBO +U30 +Weather +,2013-03-09 03:15:00,
2013-03-08 19:30:00,47.5,33.1,28.25,North,0,0.0,2.0,90,0.00,,,-99.99,HOBO +U30 +Weather +,2013-03-09 03:30:00,
2013-03-08 19:45:00,47.4,32.9,28.26,North,0,0.0,1.3,91,0.00,,,-99.99,HOBO +U30 +Weather +,2013-03-09 03:45:00,
2013-03-08 20:15:00,47.1,31.9,28.27,North,0,0.4,1.6,93,0.00,,,-99.99,HOBO +U30 +Weather +,2013-03-09 04:15:00,
2013-03-08 20:45:00,46.7,31.4,28.29,North,0,0.4,24.8,93,0.00,,,-99.99,HOBO +U30 +Weather +,2013-03-09 04:45:00,
2013-03-08 21:15:00,46.4,31.1,28.29,North,0,0.0,24.2,95,0.00,,,-99.99,HOBO +U30 +Weather +,2013-03-09 05:15:00,
2013-03-08 21:30:00,46.3,30.8,28.30,North,0,0.0,1.3,95,0.00,,,-99.99,HOBO +U30 +Weather +,2013-03-09 05:30:00,
2013-03-08 21:45:00,46.1,31.0,28.30,North,0,0.0,0.0,95,0.00,,,-99.99,HOBO +U30 +Weather +,2013-03-09 05:45:00,
2013-03-08 22:00:00,45.9,30.8,28.30,North,0,0.0,0.4,95,0.00,,,-99.99,HOBO +U30 +Weather +,2013-03-09 06:00:00,
2013-03-08 22:15:00,45.8,31.1,28.31,North,0,0.0,0.4,94,0.00,,,-99.99,HOBO +U30 +Weather +,2013-03-09 06:15:00,
2013-03-08 22:30:00,45.6,30.3,28.30,North,0,0.4,20.4,94,0.00,,,-99.99,HOBO +U30 +Weather +,2013-03-09 06:30:00,
2013-03-08 22:45:00,45.4,30.1,28.31,North,0,0.4,20.4,95,0.00,,,-99.99,HOBO +U30 +Weather +,2013-03-09 06:45:00,
2013-03-08 23:00:00,45.3,29.7,28.31,North,0,0.0,20.4,95,0.00,,,-99.99,HOBO +U30 +Weather +,2013-03-09 07:00:00,
2013-03-08 23:15:00,45.1,30.1,28.31,North,0,0.0,21.3,96,0.00,,,-99.99,HOBO +U30 +Weather +,2013-03-09 07:15:00,
2013-03-08 23:30:00,44.9,29.0,28.32,North,0,0.0,21.5,96,0.00,,,-99.99,HOBO +U30 +Weather +,2013-03-09 07:30:00,
2013-03-08 23:45:00,44.8,29.8,28.32,North,0,0.0,21.5,96,0.00,,,-99.99,HOBO +U30 +Weather +,2013-03-09 07:45:00,